User: anonymous   Login
Location: Fort Frances
(48.6170°N, 93.4170°W)
Time: 00:03:04
(UTC-05:00)
Language:

CZ-2C R/B - Orbit

View from above orbital plane
View from above orbital plane
View from above satellite
View from above satellite

Ground track
Ground track

The orbit data is extracted from the following two-line orbital elements,

1 36089U 09061B   17141.93561782 +.00000072 +00000-0 +28836-4 0  9997
2 36089 098.0518 144.9004 0083205 125.9895 290.9189 14.49660269397811
Epoch (UTC): 21 May 2017 22:27:17
Eccentricity: 0.0083205
inclination: 98.0518°
perigee height: 667 km
apogee height: 786 km
right ascension of ascending node: 144.9004°
argument of perigee: 125.9895°
revolutions per day: 14.49660269
mean anomaly at epoch: 290.9189°
orbit number at epoch: 39781

The dashed part of the orbit path shows where the satellite is in the earth's shadow,  

DLR